Location: Street
(51.1247°N, 2.7429°W)
Time: 02:47:02
(UTC+00:00)

deb Explorer IX - Pass Details

Date: 10 December 2020
Orbit: 536 x 1104 km, 38.8° (Epoch: 20 January)

Event Time Altitude Azimuth Distance (km) Brightness Sun altitude
Rises 12:08:38 0° 221° (SW) 3,899 ? 15.9°
Reaches altitude 10° 12:12:02 10° 207° (SSW) 2,956 ? 15.9°
Maximum altitude 12:17:23 22° 160° (SSE) 2,163 ? 15.8°
Drops below altitude 10° 12:22:35 10° 113° (ESE) 2,865 ? 15.8°
Sets 12:25:49 0° 99° (E) 3,749 ? 15.7°
